Погода в Кадоме

Россия / Рязанская область     54°33′29″N   42°28′10″E
темп.,
°C
ветер,
м/с
пор.,
м/с
влажн.,
%
обл.,
%
осадки,
мм/ч
давл.,
гПа
погр.,
м
5 августа, чт
чт500:00+15с2266100 0.0 101611
03:00+14ссз226998 0.0 101727
06:00+15с12685 0.0 101852
09:00+22св11490 0.0 1017469
12:00+25зюз12395 0.0 10171813
15:00+27з023451 0.0 10162415
18:00+25ююв124360 0.0 101666
21:00+19юв335969 0.0 101636
6 августа, пт
пт600:00+17юв376799 0.0 1016104
03:00+18юв3859100 0.0 1015198
06:00+17ююв3474100 0.4 101684
09:00+20юв486687 0.4 1015279
12:00+23ююв584867 0.0 1015629
15:00+27ю454189 0.0 10141069
18:00+27ююв134654 0.0 1013180
21:00+20вюв376127 0.0 1013122
7 августа, сб
сб700:00+22ююв5155450 0.0 1012442
03:00+22ююв51447100 0.0 1012508
06:00+21ююв5145041 0.0 1013429
09:00+23ю41147100 0.0 1014549
12:00+22юв375298 0.0 1014271
15:00+31ююв66305 0.0 10131663
18:00+28юв593991 0.0 1013570
21:00+21юв495896 0.0 1014159
8 августа, вс
вс800:00+22юв41248100 0.0 1014280
03:00+22ююв61342100 0.0 1014317
06:00+21юв374794 0.0 1015205
09:00+27ююв573537 0.0 1015506
12:00+31ююв4525100 0.0 10151063
15:00+33ююв4523100 0.0 10152152
18:00+30ююв2338100 0.0 101559
21:00+24ю1148100 0.0 101615
9 августа, пн
пн900:00+22ю0153100 0.0 101718
03:00+21ссв0160100 0.0 101712
06:00+21ссз3567100 0.0 1018132
09:00+25зсз2354100 0.0 1019513
12:00+30сз2241100 0.0 10181037
15:00+32зюз233399 0.0 10182629
18:00+28з2243100 0.0 101749
21:00+22ссз3574100 0.8 101969